When you browse on this site, cookies collect data to enhance your experience and personalize the content and advertising you see.
Visit our Privacy Policy to learn more. By continuing to use the site, you agree to this use of cookies and data.
  • In Deutschland
  • Länderverzeichnis
  • Für 7 Tage
  • Wassertemperatur
  • Satellitenkarten
  • Wetterkarte
  • Widgets
  • user-avatar
    Anmelden

    Stündliche Wetter Lezhe

    Heute, 26 März, Dienstag

    Zeit Temperatur Niederschläge Wind Luftdruck Luftfeuchtigkeit
    00:00 +11°C° 0 mm 1 m/S 732 mmHg 68%
    01:00 +11°C° 0 mm 1 m/S 733 mmHg 68%
    02:00 +10°C° 0 mm 2 m/S 733 mmHg 68%
    03:00 +10°C° 0 mm 2 m/S 733 mmHg 68%
    04:00 +10°C° 0 mm 2 m/S 733 mmHg 67%
    05:00 +10°C° 0 mm 2 m/S 733 mmHg 66%
    06:00 +10°C° 0 mm 3 m/S 734 mmHg 64%
    07:00 +11°C° 0 mm 3 m/S 734 mmHg 63%
    08:00 +12°C° 0 mm 4 m/S 734 mmHg 57%
    09:00 +14°C° 0 mm 4 m/S 734 mmHg 52%
    10:00 +15°C° 0 mm 4 m/S 735 mmHg 46%
    11:00 +15°C° 0 mm 4 m/S 735 mmHg 44%
    12:00 +16°C° 0 mm 5 m/S 735 mmHg 43%
    13:00 +16°C° 0 mm 5 m/S 735 mmHg 41%
    14:00 +16°C° 0 mm 5 m/S 735 mmHg 41%
    15:00 +16°C° 0 mm 6 m/S 735 mmHg 41%
    16:00 +15°C° 0 mm 6 m/S 735 mmHg 41%
    17:00 +14°C° 0 mm 6 m/S 736 mmHg 44%
    18:00 +11°C° 0 mm 6 m/S 736 mmHg 47%
    19:00 +10°C° 0 mm 5 m/S 737 mmHg 50%
    20:00 +9°C° 0 mm 5 m/S 737 mmHg 52%
    21:00 +9°C° 0 mm 5 m/S 738 mmHg 53%
    22:00 +8°C° 0 mm 5 m/S 738 mmHg 54%
    23:00 +8°C° 0 mm 5 m/S 739 mmHg 54%

    Morgen, 27 März, Mittwoch

    Zeit Temperatur Niederschläge Wind Luftdruck Luftfeuchtigkeit
    00:00 +8°C° 0 mm 5 m/S 739 mmHg 55%
    01:00 +7°C° 0 mm 5 m/S 739 mmHg 55%
    02:00 +7°C° 0 mm 5 m/S 739 mmHg 55%
    03:00 +7°C° 0 mm 5 m/S 739 mmHg 56%
    04:00 +6°C° 0 mm 4 m/S 739 mmHg 56%
    05:00 +7°C° 0 mm 5 m/S 740 mmHg 55%
    06:00 +7°C° 0 mm 5 m/S 740 mmHg 54%
    07:00 +8°C° 0 mm 5 m/S 740 mmHg 53%
    08:00 +9°C° 0 mm 5 m/S 740 mmHg 49%
    09:00 +10°C° 0 mm 5 m/S 741 mmHg 44%
    10:00 +13°C° 0 mm 5 m/S 741 mmHg 40%
    11:00 +14°C° 0 mm 5 m/S 741 mmHg 38%
    12:00 +15°C° 0 mm 5 m/S 740 mmHg 37%
    13:00 +15°C° 0 mm 5 m/S 740 mmHg 35%
    14:00 +15°C° 0 mm 5 m/S 740 mmHg 35%
    15:00 +15°C° 0 mm 5 m/S 740 mmHg 36%
    16:00 +15°C° 0 mm 5 m/S 740 mmHg 36%
    17:00 +13°C° 0 mm 5 m/S 740 mmHg 38%
    18:00 +12°C° 0 mm 5 m/S 741 mmHg 41%
    19:00 +10°C° 0 mm 6 m/S 741 mmHg 43%
    20:00 +9°C° 0 mm 5 m/S 741 mmHg 45%
    21:00 +8°C° 0 mm 5 m/S 742 mmHg 48%
    22:00 +8°C° 0 mm 5 m/S 742 mmHg 50%
    23:00 +7°C° 0 mm 5 m/S 742 mmHg 51%

    übermorgen, 28 März, Donnerstag

    Zeit Temperatur Niederschläge Wind Luftdruck Luftfeuchtigkeit
    00:00 +7°C° 0 mm 6 m/S 742 mmHg 52%
    01:00 +5°C° 0 mm 6 m/S 742 mmHg 54%
    02:00 +5°C° 0 mm 6 m/S 742 mmHg 54%
    03:00 +5°C° 0 mm 5 m/S 742 mmHg 54%
    04:00 +5°C° 0 mm 5 m/S 742 mmHg 54%
    05:00 +5°C° 0 mm 5 m/S 742 mmHg 51%
    06:00 +6°C° 0 mm 5 m/S 742 mmHg 49%
    07:00 +6°C° 0 mm 5 m/S 742 mmHg 46%
    08:00 +8°C° 0 mm 5 m/S 742 mmHg 41%
    09:00 +10°C° 0 mm 5 m/S 743 mmHg 36%
    10:00 +12°C° 0 mm 5 m/S 743 mmHg 32%
    11:00 +13°C° 0 mm 5 m/S 742 mmHg 31%
    12:00 +14°C° 0 mm 5 m/S 742 mmHg 30%
    13:00 +15°C° 0 mm 5 m/S 742 mmHg 30%
    14:00 +15°C° 0 mm 6 m/S 741 mmHg 30%
    15:00 +15°C° 0 mm 6 m/S 741 mmHg 31%
    16:00 +15°C° 0 mm 6 m/S 741 mmHg 32%
    17:00 +13°C° 0 mm 6 m/S 741 mmHg 35%
    18:00 +11°C° 0 mm 6 m/S 742 mmHg 39%
    19:00 +9°C° 0 mm 6 m/S 742 mmHg 43%
    20:00 +9°C° 0 mm 6 m/S 743 mmHg 45%
    21:00 +8°C° 0 mm 6 m/S 743 mmHg 47%
    22:00 +7°C° 0 mm 6 m/S 744 mmHg 48%
    23:00 +7°C° 0 mm 5 m/S 744 mmHg 49%

    29 März, Freitag

    Zeit Temperatur Niederschläge Wind Luftdruck Luftfeuchtigkeit
    00:00 +7°C° 0 mm 5 m/S 744 mmHg 51%
    01:00 +6°C° 0 mm 5 m/S 744 mmHg 52%
    02:00 +6°C° 0 mm 5 m/S 744 mmHg 52%
    03:00 +5°C° 0 mm 5 m/S 744 mmHg 53%
    04:00 +5°C° 0 mm 5 m/S 744 mmHg 53%
    05:00 +6°C° 0 mm 4 m/S 744 mmHg 52%
    06:00 +6°C° 0 mm 4 m/S 744 mmHg 50%
    07:00 +7°C° 0 mm 4 m/S 744 mmHg 49%
    08:00 +9°C° 0 mm 5 m/S 744 mmHg 44%
    09:00 +10°C° 0 mm 5 m/S 744 mmHg 39%
    10:00 +13°C° 0 mm 6 m/S 744 mmHg 34%
    11:00 +14°C° 0 mm 6 m/S 744 mmHg 32%
    12:00 +15°C° 0 mm 5 m/S 744 mmHg 31%
    13:00 +16°C° 0 mm 5 m/S 743 mmHg 30%
    14:00 +16°C° 0 mm 5 m/S 743 mmHg 31%
    15:00 +16°C° 0 mm 5 m/S 743 mmHg 31%
    16:00 +16°C° 0 mm 5 m/S 743 mmHg 32%
    17:00 +14°C° 0 mm 4 m/S 743 mmHg 38%
    18:00 +12°C° 0 mm 4 m/S 743 mmHg 43%
    19:00 +11°C° 0 mm 3 m/S 744 mmHg 49%
    20:00 +10°C° 0 mm 3 m/S 744 mmHg 51%
    21:00 +8°C° 0 mm 4 m/S 744 mmHg 53%
    22:00 +8°C° 0 mm 4 m/S 744 mmHg 55%
    23:00 +7°C° 0 mm 4 m/S 744 mmHg 57%

    30 März, Samstag

    Zeit Temperatur Niederschläge Wind Luftdruck Luftfeuchtigkeit
    00:00 +7°C° 0 mm 4 m/S 744 mmHg 59%
    01:00 +7°C° 0 mm 4 m/S 744 mmHg 61%
    02:00 +6°C° 0 mm 4 m/S 744 mmHg 62%
    03:00 +6°C° 0 mm 4 m/S 744 mmHg 63%
    04:00 +7°C° 0 mm 3 m/S 744 mmHg 64%
    05:00 +8°C° 0 mm 3 m/S 744 mmHg 62%
    06:00 +8°C° 0 mm 3 m/S 744 mmHg 60%
    07:00 +9°C° 0 mm 3 m/S 744 mmHg 58%
    08:00 +11°C° 0 mm 4 m/S 744 mmHg 51%
    09:00 +13°C° 0 mm 4 m/S 744 mmHg 45%
    10:00 +14°C° 0 mm 4 m/S 743 mmHg 38%
    11:00 +15°C° 0 mm 4 m/S 743 mmHg 36%
    12:00 +17°C° 0 mm 4 m/S 742 mmHg 34%
    13:00 +18°C° 0 mm 4 m/S 742 mmHg 32%
    14:00 +18°C° 0 mm 4 m/S 741 mmHg 33%
    15:00 +18°C° 0 mm 4 m/S 741 mmHg 35%
    16:00 +17°C° 0 mm 5 m/S 740 mmHg 37%
    17:00 +15°C° 0 mm 4 m/S 740 mmHg 44%
    18:00 +13°C° 0 mm 4 m/S 740 mmHg 50%
    19:00 +12°C° 0 mm 3 m/S 740 mmHg 57%
    20:00 +11°C° 0 mm 3 m/S 740 mmHg 56%
    21:00 +11°C° 0 mm 3 m/S 740 mmHg 56%
    22:00 +10°C° 0 mm 2 m/S 740 mmHg 55%
    23:00 +10°C° 0 mm 3 m/S 740 mmHg 58%

    31 März, Sonntag

    Zeit Temperatur Niederschläge Wind Luftdruck Luftfeuchtigkeit
    00:00 +9°C° 0 mm 3 m/S 739 mmHg 61%
    01:00 +9°C° 0 mm 3 m/S 739 mmHg 64%
    02:00 +9°C° 0 mm 2 m/S 739 mmHg 67%
    03:00 +8°C° 0 mm 2 m/S 738 mmHg 70%
    04:00 +8°C° 0 mm 2 m/S 738 mmHg 72%
    05:00 +9°C° 0 mm 2 m/S 738 mmHg 70%
    06:00 +9°C° 0 mm 2 m/S 738 mmHg 67%
    07:00 +10°C° 0 mm 2 m/S 738 mmHg 64%
    08:00 +13°C° 0 mm 2 m/S 738 mmHg 56%
    09:00 +15°C° 0 mm 2 m/S 737 mmHg 47%
    10:00 +18°C° 0 mm 1 m/S 737 mmHg 39%
    11:00 +18°C° 0 mm 2 m/S 737 mmHg 37%
    12:00 +19°C° 0 mm 3 m/S 736 mmHg 35%
    13:00 +20°C° 0 mm 3 m/S 736 mmHg 33%
    14:00 +19°C° 0 mm 3 m/S 735 mmHg 37%
    15:00 +18°C° 0 mm 3 m/S 735 mmHg 40%
    16:00 +18°C° 0 mm 3 m/S 735 mmHg 43%
    17:00 +16°C° 0 mm 3 m/S 735 mmHg 52%
    18:00 +14°C° 0 mm 2 m/S 735 mmHg 60%
    19:00 +13°C° 0 mm 1 m/S 736 mmHg 69%
    20:00 +12°C° 0 mm 1 m/S 736 mmHg 67%
    21:00 +12°C° 0 mm 1 m/S 736 mmHg 65%
    22:00 +12°C° 0 mm 1 m/S 736 mmHg 63%
    23:00 +12°C° 0 mm 1 m/S 736 mmHg 64%
    Mehr zeigen